DeLand, FL

2:59 AM EST on November 21, 2019 (GMT -0500)
De Land Municipal-Taylor

Weather History for KDED - September, 2019

Change the Weather History Date:

Monday, September 2, 2019

  Actual Average Record
Temperature  
Mean Temperature 82 °F -  
Max Temperature 86 °F 89 °F 93 °F (2015)
Min Temperature 77 °F 70 °F 73 °F (2014)
Cooling Degree Days 16    
Growing Degree Days 32 (Base 50)    
Moisture  
Dew Point 75 °F    
Average Humidity 84    
Maximum Humidity 94    
Minimum Humidity 66    
Precipitation  
Precipitation 0.70 in - - ()
Sea Level Pressure  
Sea Level Pressure 29.84 in    
Wind  
Wind Speed 9 mph (NNE)    
Max Wind Speed 20 mph    
Max Gust Speed 31 mph    
Visibility 10 miles    
Events Rain    
Averages and records for this station are not official NWS values.
T = Trace of Precipitation, MM = Missing Value Source: NWS Daily Summary

Daily Weather History Graph

Daily Weather History Graph

Search for Another Location

Airport or City:

Astronomy

Sep. 02, 2019 Rise Set
Actual Time 7:03 AM EDT 7:45 PM EDT
Civil Twilight 6:39 AM EDT 8:09 PM EDT
Nautical Twilight 6:10 AM EDT 8:38 PM EDT
Astronomical Twilight 5:41 AM EDT 9:07 PM EDT
Moon 10:28 AM EDT (9/2) 10:25 PM EDT (9/2)
Length of Visible Light 13h 30m
Length of Day
12h 42m
Waxing Crescent, 15% of the Moon is Illuminated
Sep 2
Waxing Crescent
Sep 5
First Quarter
Sep 14
Full
Sep 21
Last Quarter
Sep 28
New

Hourly Weather History & Observations

Time (EDT) Temp. Heat Index Dew Point Humidity Pressure Visibility Wind Dir Wind Speed Gust Speed Precip Events Conditions
12:15 AM 77.0 °F - 75.2 °F 94% 29.92 in 10.0 mi North 5.8 mph - N/A   Clear
12:35 AM 77.0 °F - 75.2 °F 94% 29.91 in 10.0 mi North 5.8 mph - N/A   Scattered Clouds
12:55 AM 77.0 °F - 75.2 °F 94% 29.90 in 10.0 mi North 6.9 mph - N/A   Scattered Clouds
1:15 AM 77.0 °F - 75.2 °F 94% 29.90 in 10.0 mi NNE 5.8 mph - N/A   Scattered Clouds
1:35 AM 77.0 °F - 75.2 °F 94% 29.89 in 10.0 mi North 5.8 mph - N/A   Clear
1:55 AM 77.0 °F - 75.2 °F 94% 29.89 in 10.0 mi North 6.9 mph - N/A   Scattered Clouds
2:15 AM 77.0 °F - 75.2 °F 94% 29.88 in 10.0 mi North 6.9 mph - N/A   Scattered Clouds
2:35 AM 78.8 °F - 75.2 °F 89% 29.86 in 10.0 mi North 5.8 mph - N/A   Scattered Clouds
2:55 AM 78.8 °F - 77.0 °F 94% 29.86 in 10.0 mi North 6.9 mph - N/A   Mostly Cloudy
3:35 AM 77.0 °F - 75.2 °F 94% 29.84 in 10.0 mi North 4.6 mph - N/A   Scattered Clouds
3:55 AM 77.0 °F - 75.2 °F 94% 29.83 in 10.0 mi North 4.6 mph - N/A   Scattered Clouds
4:15 AM 77.0 °F - 75.2 °F 94% 29.84 in 10.0 mi North 4.6 mph - N/A   Scattered Clouds
4:35 AM 78.8 °F - 75.2 °F 89% 29.84 in 10.0 mi North 4.6 mph - N/A   Mostly Cloudy
4:55 AM 78.8 °F - 75.2 °F 89% 29.83 in 10.0 mi NNE 5.8 mph - N/A   Scattered Clouds
5:15 AM 78.8 °F - 75.2 °F 89% 29.83 in 10.0 mi NNE 4.6 mph - N/A   Scattered Clouds
5:35 AM 78.8 °F - 75.2 °F 89% 29.84 in 10.0 mi NNE 6.9 mph - N/A   Scattered Clouds
5:55 AM 78.8 °F - 75.2 °F 89% 29.83 in 10.0 mi NNE 5.8 mph - N/A   Scattered Clouds
6:15 AM 78.8 °F - 75.2 °F 89% 29.83 in 10.0 mi NNE 4.6 mph - N/A   Scattered Clouds
6:35 AM 78.8 °F - 75.2 °F 89% 29.84 in 10.0 mi North 5.8 mph - N/A   Scattered Clouds
6:55 AM 78.8 °F - 75.2 °F 89% 29.85 in 10.0 mi NNW 5.8 mph - N/A   Scattered Clouds
7:15 AM 78.8 °F - 75.2 °F 89% 29.85 in 10.0 mi NNW 5.8 mph - N/A   Mostly Cloudy
7:35 AM 78.8 °F - 75.2 °F 89% 29.85 in 10.0 mi North 6.9 mph - N/A   Mostly Cloudy
7:55 AM 78.8 °F - 75.2 °F 89% 29.86 in 10.0 mi NNE 6.9 mph - N/A   Scattered Clouds
8:15 AM 80.6 °F 86.2 °F 75.2 °F 84% 29.86 in 10.0 mi North 6.9 mph - N/A   Clear
8:35 AM 80.6 °F 87.1 °F 77.0 °F 89% 29.86 in 10.0 mi North 8.1 mph - N/A   Scattered Clouds
8:55 AM 80.6 °F 87.1 °F 77.0 °F 89% 29.86 in 10.0 mi North 9.2 mph - N/A   Scattered Clouds
9:15 AM 82.4 °F 89.5 °F 75.2 °F 79% 29.86 in 10.0 mi NNE 11.5 mph 18.4 mph N/A   Mostly Cloudy
9:35 AM 84.2 °F 92.3 °F 75.2 °F 74% 29.86 in 10.0 mi NNE 12.7 mph 19.6 mph N/A   Overcast
9:55 AM 84.2 °F 92.3 °F 75.2 °F 74% 29.87 in 10.0 mi NNE 12.7 mph - N/A   Overcast
10:15 AM 80.6 °F 85.4 °F 73.4 °F 79% 29.87 in 10.0 mi East 19.6 mph 26.5 mph N/A   Overcast
10:35 AM 77.0 °F - 73.4 °F 89% 29.88 in 3.5 mi ENE 18.4 mph 31.1 mph 0.08 in Rain Heavy Rain
10:55 AM 77.0 °F - 75.2 °F 94% 29.87 in 2.0 mi NE 11.5 mph 19.6 mph 0.36 in Rain Heavy Rain
11:15 AM 78.8 °F - 75.2 °F 89% 29.88 in 10.0 mi ENE 6.9 mph - N/A Rain Light Rain
11:35 AM 78.8 °F - 77.0 °F 94% 29.88 in 3.0 mi NNE 11.5 mph - 0.16 in Rain Heavy Rain
11:55 AM 80.6 °F 87.1 °F 77.0 °F 89% 29.87 in 10.0 mi NE 6.9 mph - 0.18 in   Overcast
12:15 PM 78.8 °F - 75.2 °F 89% 29.88 in 4.0 mi NE 10.4 mph 27.6 mph 0.02 in Rain Light Rain
12:35 PM 77.0 °F - 75.2 °F 94% 29.87 in 7.0 mi NNE 10.4 mph - 0.16 in Rain Light Rain
12:55 PM 80.6 °F 87.1 °F 77.0 °F 89% 29.86 in 10.0 mi NE 9.2 mph - 0.16 in   Mostly Cloudy
1:15 PM 82.4 °F 90.9 °F 77.0 °F 84% 29.85 in 10.0 mi NNE 13.8 mph 23.0 mph N/A   Mostly Cloudy
1:35 PM 82.4 °F 90.9 °F 77.0 °F 84% 29.84 in 10.0 mi NNE 11.5 mph - N/A   Scattered Clouds
1:55 PM 86.0 °F 95.1 °F 75.2 °F 70% 29.84 in 10.0 mi ENE 16.1 mph 24.2 mph N/A   Scattered Clouds
2:15 PM 86.0 °F 95.1 °F 75.2 °F 70% 29.83 in 10.0 mi NE 12.7 mph 21.9 mph N/A   Mostly Cloudy
2:35 PM 82.4 °F 88.2 °F 73.4 °F 74% 29.83 in 10.0 mi NE 16.1 mph 27.6 mph N/A   Overcast
2:55 PM 82.4 °F 89.5 °F 75.2 °F 79% 29.82 in 10.0 mi ENE 12.7 mph 23.0 mph N/A   Scattered Clouds
3:15 PM 84.2 °F 90.9 °F 73.4 °F 70% 29.82 in 10.0 mi ENE 17.3 mph 24.2 mph N/A   Scattered Clouds
3:35 PM 84.2 °F 90.9 °F 73.4 °F 70% 29.81 in 10.0 mi NE 12.7 mph 21.9 mph N/A   Scattered Clouds
3:55 PM 84.2 °F 90.9 °F 73.4 °F 70% 29.80 in 10.0 mi NNE 17.3 mph 23.0 mph N/A   Clear
4:15 PM 86.0 °F 93.4 °F 73.4 °F 66% 29.80 in 10.0 mi NE 19.6 mph - N/A   Clear
4:35 PM 86.0 °F 93.4 °F 73.4 °F 66% 29.80 in 10.0 mi NNE 13.8 mph 20.7 mph N/A   Clear
4:55 PM 84.2 °F 90.9 °F 73.4 °F 70% 29.80 in 10.0 mi NE 13.8 mph 21.9 mph N/A   Scattered Clouds
5:15 PM 84.2 °F 92.3 °F 75.2 °F 74% 29.80 in 10.0 mi NE 15.0 mph 19.6 mph N/A   Mostly Cloudy
5:35 PM 84.2 °F 92.3 °F 75.2 °F 74% 29.81 in 10.0 mi NE 16.1 mph - N/A   Mostly Cloudy
5:55 PM 84.2 °F 92.3 °F 75.2 °F 74% 29.80 in 10.0 mi NNE 15.0 mph 20.7 mph N/A   Scattered Clouds
6:15 PM 84.2 °F 92.3 °F 75.2 °F 74% 29.80 in 10.0 mi NE 10.4 mph 23.0 mph N/A   Scattered Clouds
6:35 PM 84.2 °F 92.3 °F 75.2 °F 74% 29.81 in 10.0 mi NNE 11.5 mph - N/A   Mostly Cloudy
6:55 PM 82.4 °F 89.5 °F 75.2 °F 79% 29.81 in 10.0 mi NNE 9.2 mph - N/A   Mostly Cloudy
7:15 PM 82.4 °F 89.5 °F 75.2 °F 79% 29.82 in 10.0 mi NNE 10.4 mph 18.4 mph N/A   Overcast
7:35 PM 82.4 °F 89.5 °F 75.2 °F 79% 29.81 in 10.0 mi NNE 11.5 mph - N/A Rain Rain
8:15 PM 80.6 °F 86.2 °F 75.2 °F 84% 29.82 in 10.0 mi NNE 9.2 mph - N/A   Scattered Clouds
8:35 PM 80.6 °F 86.2 °F 75.2 °F 84% 29.82 in 10.0 mi NNE 10.4 mph - N/A   Scattered Clouds
8:55 PM 80.6 °F 85.4 °F 73.4 °F 79% 29.83 in 10.0 mi NNE 10.4 mph - N/A   Scattered Clouds
9:15 PM 80.6 °F 85.4 °F 73.4 °F 79% 29.83 in 10.0 mi North 8.1 mph - N/A   Mostly Cloudy
9:35 PM 78.8 °F - 75.2 °F 89% 29.83 in 10.0 mi North 10.4 mph - N/A   Overcast
9:55 PM 80.6 °F 86.2 °F 75.2 °F 84% 29.84 in 10.0 mi North 10.4 mph - N/A   Overcast
10:15 PM 80.6 °F 86.2 °F 75.2 °F 84% 29.83 in 10.0 mi NNE 10.4 mph - N/A   Overcast
10:35 PM 80.6 °F 86.2 °F 75.2 °F 84% 29.83 in 10.0 mi NNE 8.1 mph - N/A   Mostly Cloudy
10:55 PM 80.6 °F 86.2 °F 75.2 °F 84% 29.83 in 10.0 mi NNE 12.7 mph 21.9 mph N/A   Mostly Cloudy
11:15 PM 80.6 °F 85.4 °F 73.4 °F 79% 29.83 in 10.0 mi NNE 11.5 mph 16.1 mph N/A   Scattered Clouds
11:35 PM 78.8 °F - 73.4 °F 83% 29.83 in 10.0 mi NNE 10.4 mph - N/A   Clear
11:55 PM 78.8 °F - 75.2 °F 89% 29.83 in 10.0 mi North 9.2 mph - N/A   Scattered Clouds